| time (UTC) | temp F | wind direction | speed MPH | gust MPH | rain 1hr in | rain 24hr in | rain mn in | humidity % | barometer mb |
| 20260906052056 | 59 | 0.0 | 1.0 | 0.00 | 0.00 | 0.00 | 62 | 1019.3 | |
| 20260906050536 | 59 | 0.0 | 1.0 | 0.00 | 0.00 | 0.00 | 62 | 1019.3 | |
| 20260906045016 | 60 | 0.0 | 1.0 | 0.00 | 0.00 | 0.00 | 64 | 1019.3 | |
| 20260906043536 | 61 | 0.0 | 1.0 | 0.00 | 0.00 | 0.00 | 60 | 1019.0 | |
| 20260906042016 | 61 | 270 | 1.0 | 3.0 | 0.00 | 0.00 | 0.00 | 58 | 1018.8 |
| 20260906040517 | 62 | 0.0 | 3.0 | 0.00 | 0.00 | 0.00 | 58 | 1018.9 | |
| 20260906035016 | 64 | 248 | 1.0 | 2.0 | 0.00 | 0.00 | 0.00 | 57 | 1019.0 |
| 20260906033536 | 63 | 225 | 2.0 | 5.0 | 0.00 | 0.00 | 0.00 | 56 | 1018.8 |
| 20260906032016 | 66 | 180 | 2.0 | 5.0 | 0.00 | 0.00 | 0.00 | 53 | 1018.8 |
| 20260906030517 | 67 | 203 | 1.0 | 3.0 | 0.00 | 0.00 | 0.00 | 50 | 1018.5 |
| 20260906025016 | 65 | 248 | 4.0 | 7.0 | 0.00 | 0.00 | 0.00 | 55 | 1018.4 |
| 20260906023536 | 66 | 180 | 3.0 | 8.0 | 0.00 | 0.00 | 0.00 | 57 | 1018.7 |
| 20260906022036 | 66 | 180 | 5.0 | 11.0 | 0.00 | 0.00 | 0.00 | 55 | 1018.9 |
| 20260906020516 | 68 | 158 | 3.0 | 8.0 | 0.00 | 0.00 | 0.00 | 49 | 1018.9 |
| 20260906015016 | 68 | 0.0 | 1.0 | 0.00 | 0.00 | 0.00 | 45 | 1018.7 | |
| 20260906013516 | 68 | 45 | 2.0 | 4.0 | 0.00 | 0.00 | 0.00 | 50 | 1018.6 |
| 20260906012016 | 68 | 0.0 | 3.0 | 0.00 | 0.00 | 0.00 | 54 | 1018.5 | |
| 20260906010516 | 68 | 135 | 1.0 | 3.0 | 0.00 | 0.00 | 0.00 | 47 | 1018.2 |
| 20260906005016 | 68 | 135 | 2.0 | 3.0 | 0.00 | 0.00 | 0.00 | 45 | 1018.1 |
| 20260906003516 | 69 | 113 | 1.0 | 3.0 | 0.00 | 0.00 | 0.00 | 43 | 1018.1 |
| 20260906002016 | 69 | 113 | 1.0 | 3.0 | 0.00 | 0.00 | 0.00 | 44 | 1018.1 |
| 20260906000516 | 69 | 90 | 3.0 | 6.0 | 0.00 | 0.00 | 0.00 | 49 | 1018.0 |
| 20260905235016 | 68 | 0.0 | 2.0 | 0.00 | 0.00 | 0.00 | 47 | 1017.9 | |
| 20260905233516 | 68 | 23 | 2.0 | 5.0 | 0.00 | 0.00 | 0.00 | 54 | 1018.1 |
| 20260905232016 | 69 | 23 | 2.0 | 5.0 | 0.00 | 0.00 | 0.00 | 51 | 1018.0 |
| 20260905230535 | 71 | 23 | 3.0 | 7.0 | 0.00 | 0.00 | 0.00 | 47 | 1018.0 |
| 20260905225016 | 69 | 158 | 4.0 | 7.0 | 0.00 | 0.00 | 0.00 | 51 | 1018.2 |
| 20260905223515 | 69 | 158 | 3.0 | 5.0 | 0.00 | 0.00 | 0.00 | 48 | 1018.3 |
| 20260905222015 | 72 | 90 | 3.0 | 7.0 | 0.00 | 0.00 | 0.00 | 44 | 1018.5 |
| 20260905220516 | 71 | 45 | 5.0 | 11.0 | 0.00 | 0.00 | 0.00 | 50 | 1018.7 |
| 20260905215015 | 71 | 45 | 4.0 | 10.0 | 0.00 | 0.00 | 0.00 | 49 | 1019.1 |
| 20260905212017 | 70 | 45 | 4.0 | 9.0 | 0.00 | 0.00 | 0.00 | 52 | 1019.1 |
| 20260905210515 | 69 | 68 | 4.0 | 9.0 | 0.00 | 0.00 | 0.00 | 53 | 1019.3 |
| 20260905205015 | 69 | 90 | 3.0 | 7.0 | 0.00 | 0.00 | 0.00 | 54 | 1019.3 |
| 20260905203515 | 69 | 90 | 4.0 | 11.0 | 0.00 | 0.00 | 0.00 | 52 | 1019.2 |
| 20260905202015 | 67 | 23 | 6.0 | 11.0 | 0.00 | 0.00 | 0.00 | 55 | 1019.2 |
| 20260905200515 | 68 | 45 | 4.0 | 9.0 | 0.00 | 0.00 | 0.00 | 56 | 1019.5 |
| 20260905195015 | 67 | 23 | 6.0 | 12.0 | 0.00 | 0.00 | 0.00 | 58 | 1019.5 |
| 20260905193515 | 67 | 45 | 3.0 | 6.0 | 0.00 | 0.00 | 0.00 | 58 | 1019.7 |
| 20260905192056 | 66 | 23 | 6.0 | 10.0 | 0.00 | 0.00 | 0.00 | 61 | 1019.8 |
| 20260905190515 | 66 | 23 | 7.0 | 11.0 | 0.00 | 0.00 | 0.00 | 58 | 1019.9 |
| 20260905185055 | 66 | 0 | 5.0 | 12.0 | 0.00 | 0.00 | 0.00 | 63 | 1020.1 |
| 20260905183515 | 65 | 45 | 5.0 | 12.0 | 0.00 | 0.00 | 0.00 | 64 | 1020.3 |
| 20260905182017 | 64 | 23 | 8.0 | 12.0 | 0.00 | 0.00 | 0.00 | 65 | 1020.4 |
| 20260905180517 | 63 | 23 | 6.0 | 12.0 | 0.00 | 0.00 | 0.00 | 67 | 1020.6 |
| 20260905175057 | 63 | 23 | 7.0 | 14.0 | 0.00 | 0.00 | 0.00 | 67 | 1020.6 |
| 20260905173517 | 63 | 23 | 6.0 | 11.0 | 0.00 | 0.00 | 0.00 | 67 | 1020.7 |
| 20260905172017 | 62 | 23 | 6.0 | 13.0 | 0.00 | 0.00 | 0.00 | 70 | 1020.5 |
| 20260905170517 | 62 | 90 | 4.0 | 10.0 | 0.00 | 0.00 | 0.00 | 69 | 1020.4 |
| 20260905165017 | 62 | 45 | 5.0 | 10.0 | 0.00 | 0.00 | 0.00 | 70 | 1020.4 |
| 20260905163517 | 62 | 90 | 4.0 | 9.0 | 0.00 | 0.00 | 0.00 | 68 | 1020.5 |
| 20260905162037 | 60 | 113 | 2.0 | 5.0 | 0.00 | 0.00 | 0.00 | 70 | 1020.3 |
| 20260905160537 | 58 | 68 | 1.0 | 2.0 | 0.00 | 0.00 | 0.00 | 75 | 1020.6 |
| 20260905155017 | 58 | 68 | 1.0 | 3.0 | 0.00 | 0.00 | 0.00 | 75 | 1020.7 |
| 20260905153537 | 57 | 68 | 1.0 | 3.0 | 0.00 | 0.00 | 0.00 | 76 | 1021.0 |
| 20260905152037 | 57 | 90 | 2.0 | 3.0 | 0.00 | 0.00 | 0.00 | 75 | 1021.0 |
| 20260905150516 | 57 | 23 | 1.0 | 4.0 | 0.00 | 0.00 | 0.00 | 75 | 1021.0 |
| 20260905145016 | 57 | 68 | 2.0 | 5.0 | 0.00 | 0.00 | 0.00 | 76 | 1021.0 |
| 20260905143516 | 57 | 23 | 1.0 | 3.0 | 0.00 | 0.00 | 0.00 | 75 | 1020.9 |
| 20260905142016 | 56 | 45 | 2.0 | 4.0 | 0.00 | 0.00 | 0.00 | 75 | 1020.9 |
| 20260905140517 | 56 | 23 | 2.0 | 3.0 | 0.00 | 0.00 | 0.00 | 75 | 1020.6 |
| 20260905135016 | 56 | 45 | 1.0 | 4.0 | 0.00 | 0.00 | 0.00 | 75 | 1020.5 |
| 20260905133516 | 56 | 45 | 2.0 | 5.0 | 0.00 | 0.00 | 0.00 | 75 | 1020.3 |
| 20260905132016 | 56 | 45 | 3.0 | 5.0 | 0.00 | 0.00 | 0.00 | 74 | 1020.1 |
| 20260905130517 | 56 | 0 | 2.0 | 5.0 | 0.00 | 0.00 | 0.00 | 76 | 1020.1 |
| 20260905125017 | 56 | 338 | 2.0 | 4.0 | 0.00 | 0.00 | 0.00 | 74 | 1020.0 |
| 20260905123517 | 56 | 338 | 3.0 | 6.0 | 0.00 | 0.00 | 0.00 | 74 | 1019.8 |
| 20260905122016 | 57 | 338 | 1.0 | 3.0 | 0.00 | 0.00 | 0.00 | 73 | 1019.8 |
| 20260905120516 | 57 | 0 | 1.0 | 3.0 | 0.00 | 0.00 | 0.00 | 73 | 1019.9 |
| 20260905115016 | 57 | 23 | 4.0 | 8.0 | 0.00 | 0.00 | 0.00 | 75 | 1019.9 |
| 20260905113517 | 57 | 23 | 2.0 | 4.0 | 0.00 | 0.00 | 0.00 | 73 | 1020.0 |
| 20260905112016 | 57 | 45 | 2.0 | 5.0 | 0.00 | 0.00 | 0.00 | 72 | 1019.9 |
| 20260905110517 | 58 | 0 | 3.0 | 8.0 | 0.00 | 0.00 | 0.00 | 74 | 1019.9 |
| 20260905105016 | 57 | 45 | 3.0 | 7.0 | 0.00 | 0.00 | 0.00 | 73 | 1019.8 |
| 20260905103516 | 58 | 0 | 2.0 | 5.0 | 0.00 | 0.00 | 0.00 | 72 | 1019.8 |
| 20260905102036 | 58 | 0 | 1.0 | 4.0 | 0.00 | 0.00 | 0.00 | 73 | 1019.7 |
| 20260905100516 | 58 | 0 | 1.0 | 3.0 | 0.00 | 0.00 | 0.00 | 73 | 1019.6 |
| 20260905095016 | 58 | 338 | 1.0 | 3.0 | 0.00 | 0.00 | 0.00 | 74 | 1019.5 |
| 20260905093516 | 58 | 45 | 2.0 | 4.0 | 0.00 | 0.00 | 0.00 | 74 | 1019.5 |
| 20260905092137 | 58 | 0 | 1.0 | 3.0 | 0.00 | 0.00 | 0.00 | 74 | 1019.5 |
| 20260905090516 | 57 | 0.0 | 3.0 | 0.00 | 0.00 | 0.00 | 75 | 1019.4 | |
| 20260905085016 | 57 | 293 | 1.0 | 2.0 | 0.00 | 0.00 | 0.00 | 75 | 1019.1 |
| 20260905083516 | 57 | 0.0 | 2.0 | 0.00 | 0.00 | 0.00 | 75 | 1019.1 | |
| 20260905082016 | 57 | 0.0 | 2.0 | 0.00 | 0.00 | 0.00 | 75 | 1019.0 | |
| 20260905080536 | 58 | 338 | 1.0 | 3.0 | 0.00 | 0.00 | 0.00 | 74 | 1019.1 |
| 20260905075016 | 59 | 338 | 1.0 | 4.0 | 0.00 | 0.00 | 0.00 | 73 | 1019.1 |
| 20260905073536 | 59 | 45 | 1.0 | 2.0 | 0.00 | 0.00 | 0.00 | 74 | 1019.0 |
| 20260905072016 | 60 | 293 | 2.0 | 6.0 | 0.00 | 0.00 | 0.00 | 72 | 1019.0 |
| 20260905070516 | 59 | 338 | 2.0 | 5.0 | 0.00 | 0.00 | 0.00 | 74 | 1018.9 |
| 20260905065017 | 59 | 0 | 2.0 | 5.0 | 0.00 | 0.00 | 0.00 | 73 | 1018.8 |
| 20260905063516 | 59 | 23 | 2.0 | 4.0 | 0.00 | 0.00 | 0.00 | 72 | 1018.7 |
| 20260905062016 | 59 | 45 | 2.0 | 7.0 | 0.00 | 0.00 | 0.00 | 72 | 1018.5 |
| 20260905060557 | 59 | 0.0 | 1.0 | 0.00 | 0.00 | 0.00 | 72 | 1018.4 | |
| 20260905055016 | 60 | 0 | 2.0 | 4.0 | 0.00 | 0.00 | 0.00 | 70 | 1018.4 |
| 20260905053517 | 60 | 248 | 1.0 | 6.0 | 0.00 | 0.00 | 0.00 | 69 | 1018.3 |